Wind_Speed
8 7 7 7 6 6 6 5 4 4 4 4 4 3 3 3 3 3 3 3 3 4 5 5 6 7 9 11 13 15 17 20 22 24 26 29 31 33 35 37 39 40 41 42
6 5 5 5 5 4 4 4 3 3 3 3 3 3 3 3 4 4 4 4 5 6 7 8 10 12 14 16 18 20 22 24 26 28 31 33 35 37 39 41 43 44 45 45
4 4 4 3 3 3 2 2 2 2 3 3 4 4 4 5 5 6 7 8 9 10 12 13 15 17 19 21 23 25 27 29 31 34 36 38 40 42 43 45 46 48 49 50
2 2 2 3 2 2 1 0 1 2 2 3 4 5 6 7 8 10 11 12 13 15 17 19 21 23 24 26 28 31 33 35 37 39 40 43 45 46 47 48 49 50 50 52
2 2 2 1 1 1 1 1 2 3 3 4 6 7 8 10 11 12 14 16 18 20 22 24 26 27 29 31 34 36 38 40 42 43 45 47 49 50 51 52 53 54 55 56
1 1 1 0 1 1 2 2 3 3 5 6 8 9 10 12 14 16 18 20 22 24 26 28 30 32 34 36 38 41 42 44 46 47 49 50 52 53 54 55 56 57 58 59
1 1 1 2 2 3 4 5 6 7 8 9 11 12 14 16 17 20 22 24 26 28 30 32 33 35 37 38 41 43 45 48 50 51 53 54 55 56 57 58 59 60 59 59
3 4 5 5 5 6 7 8 9 10 11 13 14 16 18 20 22 24 26 27 29 31 33 34 36 38 40 42 44 46 49 51 53 55 56 58 59 60 60 61 61 61 61 61
6 6 7 7 8 9 10 10 12 13 14 16 17 19 21 23 25 27 29 31 32 34 36 38 40 41 43 46 49 51 53 54 56 58 58 59 61 62 62 63 63 62 61 60
8 8 9 10 11 11 12 13 14 16 17 18 20 21 23 25 27 29 32 34 35 37 39 41 43 45 48 50 53 54 55 57 58 59 60 60 60 61 61 61 61 60 60 59
10 11 12 12 13 14 15 16 17 18 19 21 22 24 26 28 30 32 35 36 38 39 41 43 46 49 52 54 55 56 57 58 58 58 58 58 58 58 58 58 58 57 56 56
12 13 14 15 16 16 17 18 19 21 22 24 25 27 29 31 33 35 37 38 40 42 44 47 50 52 55 56 57 57 57 56 55 55 55 55 55 55 55 54 54 53 52 52
15 16 17 18 18 19 20 21 22 23 25 26 28 30 32 34 36 37 39 41 43 45 47 50 52 54 55 56 56 56 55 54 54 54 54 53 53 52 51 50 50 50 48 48
19 19 20 21 21 22 22 23 24 26 28 29 31 33 35 36 38 40 42 44 46 48 50 52 54 55 55 56 55 54 54 53 53 53 52 50 49 48 46 44 44 44 45 44
22 22 23 24 24 25 25 26 27 29 30 32 34 35 37 39 41 43 44 46 48 50 52 54 55 55 55 54 53 53 52 52 51 50 48 47 45 43 42 41 40 39 40 41
24 24 25 26 27 27 28 28 29 31 33 34 35 37 39 41 43 45 46 48 50 51 53 54 55 54 54 53 51 51 50 49 48 47 45 44 42 40 38 37 36 35 35 36
26 26 27 27 28 29 29 30 32 33 35 36 37 39 40 42 44 46 48 49 51 52 53 54 54 53 52 51 50 48 48 47 46 45 43 41 38 37 35 34 32 32 31 31
28 29 29 29 30 30 31 32 33 35 36 38 39 40 42 44 45 47 48 50 51 53 54 54 54 52 51 50 48 47 47 46 45 43 41 38 36 34 32 30 29 28 27 27
29 30 30 30 30 31 32 33 34 36 37 39 40 41 43 44 46 47 49 50 52 53 53 54 53 51 49 48 47 46 46 45 43 41 38 36 33 31 29 27 25 24 23 23
30 31 31 32 32 32 33 34 35 37 38 39 41 42 43 44 46 47 49 50 52 52 53 53 51 49 48 46 46 46 45 43 41 39 36 33 30 28 26 24 22 20 20 20
31 31 32 32 33 34 34 35 36 37 39 40 41 42 43 44 46 47 49 50 51 52 52 51 49 47 46 45 45 44 43 41 38 36 33 30 28 25 23 21 20 19 18 18
32 32 32 33 34 35 35 36 36 38 39 40 41 42 43 44 46 47 49 50 51 51 50 49 48 46 45 45 44 43 41 38 36 33 31 28 25 23 21 20 18 17 16 16
32 32 33 33 34 35 36 36 37 38 40 41 42 42 43 44 46 48 49 49 50 50 49 48 46 45 44 43 42 41 39 36 34 31 29 26 23 21 19 17 16 15 13 12
33 33 34 34 35 36 37 37 38 39 40 41 42 42 43 45 46 47 48 49 49 49 48 46 45 43 42 41 39 38 36 34 32 29 26 24 21 19 17 16 14 12 10 9
33 33 34 35 36 37 37 37 38 38 39 41 42 43 44 45 46 47 48 48 48 48 47 46 44 42 40 39 37 36 34 32 30 26 23 21 19 17 15 14 12 10 8 7
34 34 35 36 36 36 37 37 38 38 39 40 42 43 44 45 46 47 47 47 47 47 46 45 42 40 38 37 36 34 32 30 27 24 21 19 17 15 13 11 9 7 6 4
34 35 36 36 36 36 36 37 37 37 38 40 41 43 44 44 45 46 47 47 47 46 45 43 40 37 35 34 33 32 30 27 24 22 19 17 15 12 10 8 7 5 4 3
Wind_Direction
107 107 109 106 104 98 92 88 79 76 75 82 75 56 43 46 42 29 20 356 330 305 292 291 284 277 277 278 280 279 275 273 269 266 265 263 261 261 262 261 261 260 260 260
109 110 114 109 112 102 93 84 67 59 50 38 31 20 16 10 0 352 349 340 325 313 306 298 290 289 287 285 284 284 282 279 276 273 272 270 268 266 265 264 262 261 261 261
115 118 124 122 120 114 98 82 47 26 19 6 350 341 341 336 326 317 310 309 306 306 303 298 297 296 294 291 287 286 285 282 279 276 274 272 271 269 267 266 265 263 262 262
147 155 158 142 147 135 117 74 18 0 348 337 326 325 324 321 316 314 311 309 306 304 301 299 298 294 291 289 286 285 285 284 282 280 276 275 274 271 269 268 266 265 264 263
148 157 149 166 212 253 270 290 296 307 310 313 317 316 316 316 314 311 311 310 309 306 304 301 300 297 294 291 290 289 287 286 284 281 279 277 276 273 271 269 268 267 265 265
113 113 113 74 354 327 339 331 333 328 325 324 325 323 321 319 318 318 317 314 312 309 306 303 302 300 297 296 295 293 290 288 287 285 282 280 277 275 273 272 270 268 267 266
326 302 300 307 308 311 317 326 326 324 324 324 324 323 322 321 319 318 316 313 311 310 308 306 304 302 301 299 297 295 293 291 288 287 285 282 280 277 275 274 272 269 268 267
287 284 285 293 298 303 307 312 315 316 318 319 319 319 319 318 317 316 314 313 311 310 308 306 304 303 302 301 299 297 295 294 291 289 286 284 282 279 277 275 273 271 269 268
298 297 295 296 297 298 300 305 309 311 313 314 314 314 315 314 314 314 313 312 310 309 307 306 305 304 303 302 301 300 298 296 294 291 289 287 285 282 280 278 275 272 271 269
299 299 299 299 298 298 298 300 303 306 307 309 311 312 312 312 312 312 312 311 311 309 308 308 307 306 305 303 302 301 299 297 295 293 291 290 288 285 282 280 277 275 272 270
296 296 296 296 296 296 296 297 300 302 304 306 309 311 312 312 312 312 313 312 312 310 309 308 308 308 307 305 304 303 301 299 298 295 294 292 290 287 285 282 279 276 272 270
291 293 293 294 295 295 296 297 299 301 303 305 307 309 311 311 312 312 313 313 312 312 311 310 310 309 308 307 306 305 304 302 300 298 296 294 291 289 287 284 281 277 274 270
288 290 292 293 293 294 295 296 298 300 302 304 307 309 310 312 312 313 313 314 313 313 312 312 311 310 310 309 308 307 306 304 302 301 299 296 294 291 288 285 282 278 276 272
288 289 291 294 294 294 295 297 299 301 303 305 307 309 310 311 312 313 313 314 314 314 313 313 313 312 312 311 310 309 308 306 305 303 301 299 297 294 290 286 282 278 275 273
288 289 290 293 294 294 295 296 299 301 303 305 307 309 310 311 312 313 314 315 315 315 316 316 315 314 314 313 313 311 310 309 308 306 304 301 299 296 293 289 285 279 275 271
287 289 289 291 292 292 293 296 298 301 303 305 306 308 310 312 313 314 315 316 317 317 318 318 318 317 316 316 315 315 314 312 311 309 307 304 300 298 295 291 287 281 277 272
286 287 289 291 292 292 293 296 298 301 303 305 306 308 310 312 313 315 316 317 318 320 320 320 320 319 318 318 318 317 316 315 314 312 310 307 303 300 297 292 288 283 278 273
285 287 288 290 291 292 293 296 298 300 303 305 307 309 311 313 314 316 317 318 320 321 321 321 321 321 321 320 320 319 319 318 317 315 313 309 306 303 300 294 290 286 280 274
285 286 288 291 293 293 295 297 298 301 304 306 308 309 311 314 315 317 318 319 321 321 322 322 322 323 323 322 322 322 321 321 320 319 316 312 309 306 303 298 293 289 282 274
286 286 287 290 293 294 296 298 300 302 305 307 309 311 313 315 317 318 319 320 322 322 323 323 324 324 324 324 324 324 323 323 322 320 318 315 312 309 306 302 296 291 284 275
287 288 288 290 293 295 297 299 301 304 306 309 311 312 314 316 318 319 320 321 323 324 324 325 325 325 325 326 326 325 325 325 325 323 321 319 316 312 309 305 300 293 286 276
289 289 290 291 294 296 298 300 302 305 308 310 312 313 315 317 319 320 321 322 324 325 326 326 326 325 326 326 326 326 326 327 327 326 324 323 320 317 312 308 303 296 288 276
289 289 290 292 295 297 298 300 302 305 308 311 313 314 316 318 320 322 323 324 325 326 327 327 327 327 327 327 327 327 328 328 328 327 326 325 323 319 315 311 307 300 289 275
290 290 292 294 296 298 298 300 302 305 308 311 313 315 316 319 321 323 324 325 326 327 328 328 328 328 328 328 328 329 329 329 329 328 328 327 324 321 319 315 311 304 289 271
290 292 293 295 297 298 300 301 303 306 309 311 314 316 318 320 322 324 325 326 327 328 328 328 328 328 329 329 329 329 329 329 329 329 328 327 325 323 322 320 316 309 298 277
291 291 293 295 297 299 300 302 304 306 309 312 315 317 319 321 323 325 326 327 328 328 329 329 329 328 329 329 330 330 331 331 330 329 328 327 326 323 321 319 317 314 305 286
292 293 294 296 297 299 301 302 305 307 310 313 315 317 319 321 323 325 327 327 328 329 329 330 329 328 328 329 331 332 332 332 331 332 331 330 330 329 328 327 326 319 305 276
Height
5644 5643 5643 5643 5643 5642 5642 5641 5641 5640 5639 5638 5637 5637 5636 5635 5634 5633 5632 5632 5631 5630 5630 5629 5629 5630 5630 5629 5630 5629 5629 5629 5629 5629 5629 5629 5629 5630 5631 5631 5632 5632 5633 5634
5646 5645 5645 5645 5644 5644 5643 5642 5642 5641 5640 5639 5638 5637 5636 5635 5634 5634 5633 5632 5631 5629 5628 5627 5627 5625 5625 5624 5623 5623 5622 5621 5620 5620 5619 5619 5618 5618 5618 5618 5618 5619 5619 5620
5647 5646 5646 5646 5645 5644 5643 5643 5642 5641 5641 5639 5638 5637 5636 5635 5634 5633 5632 5630 5629 5627 5626 5624 5622 5621 5619 5617 5615 5614 5613 5612 5610 5609 5607 5606 5605 5604 5604 5603 5603 5603 5604 5604
5647 5648 5647 5649 5645 5644 5644 5643 5642 5641 5640 5638 5637 5636 5635 5633 5632 5631 5629 5628 5626 5624 5622 5619 5617 5615 5612 5610 5607 5605 5603 5601 5599 5596 5594 5592 5590 5589 5587 5587 5586 5586 5586 5586
5648 5647 5647 5646 5645 5644 5643 5642 5641 5640 5639 5637 5636 5634 5633 5631 5629 5627 5625 5623 5621 5619 5616 5613 5609 5606 5604 5600 5597 5594 5591 5588 5584 5581 5579 5576 5574 5572 5570 5569 5568 5567 5567 5567
5648 5647 5646 5647 5644 5643 5643 5641 5640 5638 5637 5635 5633 5632 5631 5628 5625 5623 5620 5618 5615 5612 5608 5605 5601 5597 5594 5590 5586 5582 5577 5573 5569 5565 5561 5558 5555 5553 5551 5549 5548 5548 5547 5547
5647 5646 5645 5645 5643 5642 5642 5642 5638 5636 5635 5633 5631 5629 5627 5624 5621 5618 5615 5612 5608 5604 5600 5596 5592 5587 5583 5578 5574 5569 5564 5558 5553 5548 5544 5540 5536 5533 5531 5529 5528 5527 5527 5526
5646 5645 5647 5643 5641 5641 5640 5637 5635 5633 5632 5629 5627 5625 5622 5619 5616 5613 5609 5605 5601 5596 5591 5586 5581 5576 5571 5566 5560 5554 5548 5542 5536 5530 5525 5520 5516 5513 5510 5507 5505 5504 5504 5504
5646 5646 5643 5640 5639 5638 5636 5634 5632 5630 5628 5625 5623 5620 5617 5613 5610 5606 5602 5597 5592 5587 5582 5576 5570 5565 5558 5552 5545 5538 5531 5524 5517 5510 5504 5499 5494 5490 5487 5484 5482 5481 5480 5480
5643 5641 5640 5638 5636 5634 5632 5630 5628 5626 5623 5621 5618 5615 5611 5607 5603 5598 5593 5588 5583 5577 5571 5565 5558 5551 5544 5536 5529 5521 5513 5505 5497 5490 5484 5478 5472 5467 5464 5461 5458 5457 5456 5456
5640 5639 5637 5635 5633 5631 5628 5626 5624 5621 5618 5615 5612 5608 5604 5600 5595 5590 5585 5579 5573 5567 5560 5553 5546 5537 5529 5520 5511 5503 5494 5485 5477 5469 5463 5457 5451 5446 5441 5439 5435 5435 5434 5434
5637 5635 5633 5631 5629 5626 5624 5622 5619 5616 5613 5610 5606 5602 5597 5592 5587 5582 5576 5569 5562 5555 5548 5540 5531 5522 5513 5503 5494 5484 5475 5467 5459 5451 5444 5438 5432 5427 5422 5418 5415 5413 5412 5413
5633 5630 5628 5626 5624 5621 5619 5616 5613 5610 5607 5603 5599 5594 5589 5584 5578 5572 5566 5559 5552 5544 5535 5526 5517 5507 5497 5487 5477 5467 5458 5450 5442 5434 5427 5420 5414 5409 5405 5401 5397 5395 5394 5393
5627 5625 5623 5620 5618 5615 5612 5610 5607 5603 5600 5596 5591 5586 5581 5575 5569 5562 5555 5548 5540 5531 5522 5512 5502 5492 5481 5471 5461 5451 5442 5433 5425 5417 5410 5403 5397 5392 5387 5384 5382 5379 5377 5376
5621 5619 5616 5614 5611 5608 5605 5602 5599 5596 5592 5587 5582 5577 5572 5565 5559 5552 5544 5536 5527 5518 5508 5498 5487 5477 5466 5456 5446 5437 5427 5418 5410 5402 5394 5388 5382 5377 5372 5369 5366 5365 5363 5362
5614 5611 5609 5606 5604 5601 5598 5594 5591 5587 5583 5578 5573 5568 5562 5555 5548 5541 5532 5524 5515 5505 5495 5484 5474 5463 5452 5442 5433 5423 5414 5404 5396 5388 5381 5374 5369 5363 5359 5355 5353 5351 5349 5348
5606 5603 5601 5598 5595 5592 5589 5586 5582 5578 5574 5569 5563 5558 5551 5545 5537 5529 5521 5512 5502 5493 5482 5472 5461 5450 5440 5430 5420 5411 5402 5393 5384 5376 5368 5362 5356 5351 5347 5343 5341 5339 5337 5337
5597 5595 5592 5590 5587 5583 5580 5577 5573 5569 5564 5559 5553 5547 5541 5534 5527 5518 5510 5500 5491 5481 5470 5460 5449 5438 5428 5419 5409 5400 5391 5382 5374 5365 5357 5351 5345 5341 5336 5333 5330 5328 5327 5326
5588 5586 5583 5581 5578 5574 5571 5567 5563 5559 5554 5549 5543 5537 5530 5523 5516 5507 5499 5489 5480 5470 5459 5448 5438 5427 5418 5408 5399 5390 5381 5372 5364 5355 5348 5342 5336 5332 5328 5325 5322 5320 5319 5318
5579 5576 5574 5571 5569 5565 5561 5557 5553 5549 5544 5539 5533 5526 5520 5512 5505 5496 5488 5478 5469 5459 5448 5438 5428 5418 5408 5399 5390 5381 5372 5363 5355 5347 5340 5334 5329 5324 5320 5318 5315 5313 5312 5311
5569 5567 5564 5562 5559 5556 5552 5548 5544 5539 5534 5529 5523 5516 5509 5502 5494 5486 5477 5468 5458 5448 5438 5428 5418 5409 5400 5391 5381 5372 5364 5355 5347 5340 5333 5328 5323 5318 5315 5312 5310 5308 5306 5305
5560 5557 5555 5552 5549 5546 5542 5538 5534 5529 5524 5519 5513 5506 5499 5492 5484 5476 5467 5458 5448 5438 5428 5418 5409 5400 5391 5382 5374 5365 5356 5349 5341 5334 5328 5322 5318 5314 5310 5307 5305 5303 5301 5300
5550 5548 5545 5543 5540 5536 5533 5528 5524 5520 5515 5509 5503 5496 5490 5482 5475 5466 5457 5448 5438 5429 5419 5409 5400 5391 5383 5374 5366 5358 5350 5343 5336 5329 5324 5318 5314 5310 5306 5303 5301 5299 5297 5296
5541 5538 5536 5533 5530 5526 5522 5518 5514 5510 5505 5499 5493 5487 5480 5473 5465 5456 5448 5439 5429 5420 5410 5401 5392 5383 5375 5367 5359 5351 5344 5337 5331 5325 5319 5314 5310 5306 5303 5301 5298 5296 5294 5293
5531 5529 5526 5523 5520 5516 5512 5508 5504 5500 5495 5489 5483 5477 5471 5463 5456 5447 5438 5429 5420 5411 5402 5393 5384 5376 5368 5360 5353 5345 5338 5332 5326 5321 5316 5311 5307 5304 5301 5298 5296 5294 5293 5292
5521 5519 5516 5513 5510 5506 5503 5499 5494 5490 5485 5479 5474 5468 5461 5454 5446 5438 5429 5420 5411 5403 5394 5385 5376 5368 5361 5354 5347 5340 5333 5327 5321 5316 5312 5308 5305 5302 5299 5297 5295 5293 5292 5291
5511 5509 5506 5503 5500 5496 5493 5489 5485 5480 5475 5470 5464 5458 5451 5444 5436 5428 5420 5412 5403 5394 5385 5377 5369 5361 5354 5348 5341 5335 5328 5323 5318 5313 5309 5306 5303 5300 5297 5295 5294 5293 5292 5291